Location: Hiram
(41.3130°N, 81.1440°W)
Time: 02:21:46
(UTC-04:00)

Amateur Radio Satellites - All Passes

Search period start: 21 August 2017 01:51
Search period end: 22 August 2017 01:51
Location: Hiram, 41.3130°N, 81.1440°W

Satellite Date Start Highest point End Downlink Frequencies (MHz)
Time Altitude Azimuth
50 SAT 21 Aug 01:58:25 02:01:46 57° 259° (W) 02:05:09 437.505
M-CUBED/EXP-1 PRIME 21 Aug 02:00:11 02:03:58 29° 298° (WNW) 02:07:32 437.505
UKube-1 21 Aug 02:00:23 02:04:38 60° 73° (ENE) 02:08:55 .
Oscar 19 21 Aug 02:00:26 02:04:23 21° 93° (E) 02:08:19 437.125/150
YUBILEINY 21 Aug 02:14:03 02:20:04 20° 62° (ENE) 02:26:02 435.215
BUGSAT 1 21 Aug 02:20:18 02:24:20 78° 102° (ESE) 02:28:22 437.445
DUCHIFAT 1 21 Aug 02:20:28 02:24:02 28° 291° (WNW) 02:27:38 145.980
DX 1 21 Aug 02:21:58 02:26:13 50° 260° (W) 02:30:31 434.975-435.025
VELOX 1 21 Aug 02:22:04 02:24:51 16° 268° (W) 02:27:39 145.980
BEESAT 21 Aug 02:30:14 02:33:02 16° 62° (ENE) 02:35:49 436.000
NO-84 21 Aug 02:52:16 02:54:55 34° 324° (NW) 02:57:34 435.350 FM
ITUPSAT 1 21 Aug 03:02:56 03:07:06 31° 68° (ENE) 03:11:17 437.325
Gurwin Techsat 1B 21 Aug 03:12:34 03:17:53 67° 102° (ESE) 03:23:09 435.225
Oscar 19 21 Aug 03:38:56 03:43:54 46° 290° (WNW) 03:48:50 437.125/150
UKube-1 21 Aug 03:39:22 03:41:01 12° 269° (W) 03:42:42 .
MOZHAYETS 4 21 Aug 03:49:07 03:53:39 76° 75° (ENE) 03:58:13
KKS-1 21 Aug 04:04:15 04:04:50 10° 60° (ENE) 04:05:26 437.445
BEESAT 21 Aug 04:05:37 04:10:18 60° 259° (W) 04:15:00 436.000
YUBILEINY 21 Aug 04:09:19 04:18:04 87° 264° (W) 04:26:46 435.215
CUBESAT XI-V 21 Aug 04:09:54 04:13:43 26° 67° (ENE) 04:17:35 437.345
ITUPSAT 1 21 Aug 04:40:51 04:44:53 27° 264° (W) 04:48:57 437.325
STARS 21 Aug 04:42:09 04:43:05 11° 60° (ENE) 04:44:02 437.465
AO-7 21 Aug 04:49:31 04:57:45 60° 103° (ESE) 05:05:54 .
Gurwin Techsat 1B 21 Aug 04:53:55 04:57:15 17° 299° (WNW) 05:00:34 435.225
ITAMSAT 1 21 Aug 04:58:22 05:03:33 70° 103° (ESE) 05:08:41 435.822/435.867
AO-85 21 Aug 05:07:08 05:08:59 13° 110° (ESE) 05:10:50 145.980
BEESAT 3 21 Aug 05:12:33 05:15:53 26° 113° (ESE) 05:19:16 437.485
BEESAT 2 21 Aug 05:28:37 05:30:09 12° 108° (ESE) 05:31:42 435.950
MOZHAYETS 4 21 Aug 05:30:55 05:31:19 10° 271° (W) 05:31:43
KKS-1 21 Aug 05:36:13 05:40:41 85° 259° (W) 05:45:11 437.445
CUBESAT XI-V 21 Aug 05:46:47 05:50:56 32° 264° (W) 05:55:09 437.345
DOVE 4 21 Aug 06:08:02 06:11:49 26° 94° (E) 06:15:25 437.250
YUBILEINY 21 Aug 06:08:33 06:13:30 17° 284° (WNW) 06:18:28 435.215
STARS 21 Aug 06:14:21 06:18:46 80° 257° (WSW) 06:23:11 437.465
STRAND 1 21 Aug 06:26:23 06:28:07 12° 58° (ENE) 06:29:51 437.568
ITAMSAT 1 21 Aug 06:39:25 06:42:24 16° 300° (WNW) 06:45:23 435.822/435.867
AO-7 21 Aug 06:42:56 06:50:02 33° 303° (WNW) 06:57:08 .
AO-85 21 Aug 06:45:06 06:48:55 50° 306° (NW) 06:52:45 145.980
LilacSat-2 21 Aug 06:45:52 06:48:54 21° 94° (E) 06:51:55 437.200
XW-2D 21 Aug 06:49:46 06:52:52 23° 95° (E) 06:55:58 145.860 - 145.880
BEESAT 3 21 Aug 06:49:48 06:53:21 30° 311° (NW) 06:56:57 437.485
NUDT-PHONESAT 21 Aug 06:55:35 06:58:16 19° 94° (E) 07:00:57 437.300
XW-2B 21 Aug 07:00:35 07:04:00 29° 97° (E) 07:07:23 145.730 - 145.750
BEESAT 2 21 Aug 07:03:24 07:07:21 60° 304° (NW) 07:11:22 435.950
CUTE-I 21 Aug 07:08:48 07:13:35 33° 97° (E) 07:18:20 437.470
XW-2C 21 Aug 07:19:24 07:23:10 52° 99° (E) 07:26:56 145.795 - 145.815
XW-2F 21 Aug 07:31:19 07:35:10 70° 101° (ESE) 07:38:59 145.980 - 146.000
DOVE 4 21 Aug 07:45:35 07:49:29 28° 292° (WNW) 07:53:10 437.250
NO-84 21 Aug 07:48:10 07:50:16 17° 29° (NNE) 07:52:26 435.350 FM
KAITUO 1B 21 Aug 07:56:08 07:59:56 71° 284° (WNW) 08:03:43 145.475/437.950
CUTE 1.7 + AOD 2 21 Aug 07:58:19 08:01:56 26° 95° (E) 08:05:31 437.475
STRAND 1 21 Aug 08:01:23 08:06:31 88° 73° (ENE) 08:11:39 437.568
HO-68 21 Aug 08:02:17 08:08:47 36° 97° (E) 08:15:15 435.675
PCSat 21 Aug 08:04:03 08:09:17 45° 54° (NE) 08:14:27 145.827
SO-50 21 Aug 08:05:54 08:10:13 40° 51° (NE) 08:14:33 436.795
CUBEBUG 2 21 Aug 08:12:17 08:15:19 19° 94° (E) 08:18:22 437.445
LilacSat-2 21 Aug 08:19:52 08:23:09 26° 290° (WNW) 08:26:24 437.200
XW-2D 21 Aug 08:23:49 08:26:58 24° 291° (WNW) 08:30:07 145.860 - 145.880
NUDT-PHONESAT 21 Aug 08:28:54 08:32:10 28° 289° (WNW) 08:35:24 437.300
XW-2B 21 Aug 08:35:11 08:37:58 19° 292° (WNW) 08:40:45 145.730 - 145.750
ZACube-1 21 Aug 08:44:18 08:46:31 14° 91° (E) 08:48:45 437.345
SEEDS 21 Aug 08:45:12 08:49:24 54° 100° (E) 08:53:32 437.485
CUTE-I 21 Aug 08:48:54 08:53:33 31° 293° (WNW) 08:58:10 437.470
FO-29 21 Aug 08:53:18 08:59:48 33° 66° (ENE) 09:05:47 435.910
XW-2C 21 Aug 08:55:24 08:56:54 12° 296° (WNW) 08:58:23 145.795 - 145.815
AO-73 21 Aug 09:04:28 09:07:42 21° 94° (E) 09:10:59 145.935
TIGRISAT 21 Aug 09:20:03 09:22:09 13° 63° (ENE) 09:24:13 435.000
NO-84 21 Aug 09:24:49 09:27:51 57° 225° (SW) 09:31:07 435.350 FM
XW-2A 21 Aug 09:25:37 09:28:54 48° 285° (WNW) 09:32:11 145.665 - 145.685
AAUSAT CUBESAT 2 21 Aug 09:29:44 09:33:57 79° 102° (ESE) 09:38:06 437.432
CUTE 1.7 + AOD 2 21 Aug 09:34:03 09:37:42 27° 291° (WNW) 09:41:19 437.475
ISS 21 Aug 09:34:24 09:35:23 11° 129° (SE) 09:36:20 437.550
UWE-3 21 Aug 09:39:50 09:44:05 77° 285° (WNW) 09:48:25 435.000/436.395/437.385
nSIGHT-1 21 Aug 09:41:28 09:43:15 14° 131° (SE) 09:45:02 .
STRAND 1 21 Aug 09:45:44 09:46:20 10° 272° (W) 09:46:56 437.568
SO-50 21 Aug 09:46:49 09:50:27 24° 247° (WSW) 09:54:07 436.795
PCSat 21 Aug 09:47:59 09:52:24 26° 252° (WSW) 09:56:48 145.827
CUBEBUG 2 21 Aug 09:48:11 09:52:02 35° 289° (WNW) 09:55:56 437.445
Oscar 11 21 Aug 09:48:34 09:52:47 46° 99° (E) 09:56:57 .
HO-68 21 Aug 09:49:52 09:56:33 44° 295° (WNW) 10:03:14 435.675
Tancredo 1 21 Aug 09:53:47 09:56:39 71° 142° (SE) 09:59:34 437.200
O/OREOS (USA 219) 21 Aug 10:07:59 10:12:21 60° 109° (ESE) 10:16:47 437.305
Max Valier Satellite 21 Aug 10:15:49 10:17:55 14° 92° (E) 10:20:02 145.860
PRISM 21 Aug 10:18:04 10:21:59 42° 71° (ENE) 10:25:56 437.425
ZACube-1 21 Aug 10:18:54 10:23:04 52° 286° (WNW) 10:27:18 437.345
UNISAT 6 21 Aug 10:19:04 10:23:21 63° 75° (ENE) 10:27:36 437.425
SEEDS 21 Aug 10:22:23 10:24:36 14° 296° (WNW) 10:26:49 437.485
DELFI C3 21 Aug 10:32:28 10:36:03 32° 97° (E) 10:39:36 145.870
FO-29 21 Aug 10:37:13 10:44:35 51° 261° (W) 10:51:21 435.910
AO-73 21 Aug 10:40:06 10:43:59 34° 289° (WNW) 10:47:57 145.935
TIGRISAT 21 Aug 10:54:06 10:58:23 57° 260° (W) 11:02:36 435.000
RS-15 21 Aug 11:06:51 11:18:07 46° 108° (ESE) 11:29:30 29.354- 29.394
EO-88 21 Aug 11:07:50 11:11:26 49° 100° (E) 11:14:59 145.990 - 145.960
ISS 21 Aug 11:08:06 11:11:23 83° 326° (NW) 11:14:41 437.550
QB50P2 21 Aug 11:08:25 11:10:10 12° 63° (ENE) 11:11:56 145.880/145.840
EO-79 21 Aug 11:09:23 11:10:45 11° 62° (ENE) 11:12:08 145.935-145.965
M-CUBED/EXP-1 PRIME 21 Aug 11:10:31 11:14:37 35° 64° (ENE) 11:18:50 437.505
nSIGHT-1 21 Aug 11:16:01 11:19:16 66° 326° (NNW) 11:22:31 .
Oscar 11 21 Aug 11:25:44 11:28:31 17° 295° (WNW) 11:31:19 .
Tancredo 1 21 Aug 11:29:57 11:32:06 19° 340° (NNW) 11:34:17 437.200
DUCHIFAT 1 21 Aug 11:37:14 11:40:06 18° 66° (ENE) 11:42:57 145.980
Max Valier Satellite 21 Aug 11:48:28 11:51:52 35° 288° (WNW) 11:55:16 145.860
O/OREOS (USA 219) 21 Aug 11:49:34 11:52:11 15° 307° (NW) 11:54:48 437.305
PRISM 21 Aug 11:54:52 11:57:26 16° 267° (W) 12:00:00 437.425
UNISAT 6 21 Aug 11:59:11 12:00:26 11° 270° (W) 12:01:42 437.425
DELFI C3 21 Aug 12:07:44 12:10:35 19° 293° (WNW) 12:13:25 145.870
AIST 2D 21 Aug 12:07:46 12:11:12 60° 260° (W) 12:14:40 435.315
NANOSAT C BR1 21 Aug 12:20:59 12:25:07 63° 74° (ENE) 12:29:15 145.865
POLYITAN 1 21 Aug 12:26:03 12:30:14 81° 78° (ENE) 12:34:27 437.675
ESTCUBE 1 21 Aug 12:28:58 12:33:13 38° 98° (E) 12:37:27 437.505/2401.250
LO-87 21 Aug 12:36:20 12:39:52 82° 102° (ESE) 12:43:23 145.935 - 145.965
SPROUT 21 Aug 12:40:08 12:41:42 12° 90° (E) 12:43:15 437.525
QB50P2 21 Aug 12:41:16 12:45:26 61° 259° (W) 12:49:37 145.880/145.840
EO-79 21 Aug 12:41:47 12:45:58 67° 259° (W) 12:50:09 145.935-145.965
EO-88 21 Aug 12:43:28 12:44:38 11° 296° (WNW) 12:45:48 145.990 - 145.960
M-CUBED/EXP-1 PRIME 21 Aug 12:45:19 12:49:01 25° 261° (W) 12:52:52 437.505
ISS 21 Aug 12:45:48 12:48:16 19° 343° (NNW) 12:50:43 437.550
nSIGHT-1 21 Aug 12:53:50 12:56:08 17° 345° (NNW) 12:58:25 .
Gurwin Techsat 1B 21 Aug 12:56:53 12:59:42 15° 60° (ENE) 13:02:32 435.225
Tancredo 1 21 Aug 13:07:14 13:08:10 11° 0° (N) 13:09:06 437.200
BUGSAT 1 21 Aug 13:09:36 13:13:34 52° 73° (ENE) 13:17:32 437.445
DUCHIFAT 1 21 Aug 13:11:35 13:15:29 38° 262° (W) 13:19:23 145.980
Oscar 19 21 Aug 13:17:06 13:21:36 32° 67° (ENE) 13:26:09 437.125/150
RS-15 21 Aug 13:18:16 13:30:20 59° 311° (NW) 13:42:32 29.354- 29.394
BEESAT 3 21 Aug 13:29:11 13:32:01 18° 44° (NE) 13:34:50 437.485
AO-85 21 Aug 13:35:58 13:38:46 17° 43° (NE) 13:41:41 145.980
BEESAT 2 21 Aug 13:45:21 13:46:30 11° 38° (NE) 13:47:37 435.950
AO-7 21 Aug 13:59:30 14:04:56 20° 49° (NE) 14:10:23 .
NANOSAT C BR1 21 Aug 14:00:18 14:01:13 11° 270° (W) 14:02:08 145.865
ESTCUBE 1 21 Aug 14:06:21 14:09:46 21° 294° (WNW) 14:13:09 437.505/2401.250
VELOX 1 21 Aug 14:09:51 14:14:18 86° 285° (WNW) 14:18:41 145.980
DX 1 21 Aug 14:10:19 14:13:59 26° 96° (E) 14:17:37 434.975-435.025
SPROUT 21 Aug 14:13:47 14:17:57 58° 286° (WNW) 14:22:06 437.525
ISS 21 Aug 14:23:55 14:25:42 14° 3° (N) 14:27:29 437.550
nSIGHT-1 21 Aug 14:31:40 14:33:29 14° 6° (N) 14:35:17 .
Gurwin Techsat 1B 21 Aug 14:33:39 14:38:58 79° 257° (WSW) 14:44:19 435.225
ITAMSAT 1 21 Aug 14:39:56 14:42:42 15° 60° (ENE) 14:45:27 435.822/435.867
Tancredo 1 21 Aug 14:42:03 14:44:13 19° 20° (NNE) 14:46:24 437.200
BUGSAT 1 21 Aug 14:47:33 14:49:13 12° 269° (W) 14:50:52 437.445
50 SAT 21 Aug 14:52:18 14:55:38 58° 285° (WNW) 14:58:55 437.505
Oscar 19 21 Aug 14:56:19 15:00:51 31° 264° (W) 15:05:27 437.125/150
BEESAT 3 21 Aug 15:06:00 15:09:50 47° 243° (WSW) 15:13:36 437.485
AO-85 21 Aug 15:15:13 15:19:31 66° 240° (WSW) 15:24:09 145.980
YUBILEINY 21 Aug 15:16:22 15:22:37 22° 79° (E) 15:28:48 435.215
BEESAT 2 21 Aug 15:20:53 15:24:57 77° 57° (ENE) 15:28:57 435.950
UKube-1 21 Aug 15:23:02 15:27:21 74° 284° (WNW) 15:31:37 .
RS-15 21 Aug 15:36:25 15:46:16 26° 342° (NNW) 15:56:00 29.354- 29.394
MOZHAYETS 4 21 Aug 15:44:59 15:48:06 18° 92° (E) 15:51:11
DX 1 21 Aug 15:46:24 15:50:06 28° 292° (WNW) 15:53:47 434.975-435.025
AO-7 21 Aug 15:48:06 15:56:27 80° 69° (ENE) 16:04:51 .
ISS 21 Aug 16:00:09 16:03:00 27° 23° (NNE) 16:05:50 437.550
BEESAT 21 Aug 16:05:43 16:10:01 33° 97° (E) 16:14:18 436.000
nSIGHT-1 21 Aug 16:07:42 16:10:38 30° 25° (NNE) 16:13:33 .
ITAMSAT 1 21 Aug 16:16:18 16:21:30 77° 257° (WSW) 16:26:43 435.822/435.867
Tancredo 1 21 Aug 16:16:47 16:19:39 69° 219° (SW) 16:22:31 437.200
ITUPSAT 1 21 Aug 16:40:10 16:44:58 74° 102° (ESE) 16:49:44 437.325
YUBILEINY 21 Aug 17:09:36 17:18:24 77° 279° (W) 17:27:12 435.215
DOVE 4 21 Aug 17:12:18 17:16:54 31° 69° (ENE) 17:21:25 437.250
MOZHAYETS 4 21 Aug 17:21:03 17:25:28 46° 288° (WNW) 17:29:52
KKS-1 21 Aug 17:28:04 17:31:04 18° 93° (E) 17:34:03 437.445
LilacSat-2 21 Aug 17:29:31 17:30:47 11° 64° (ENE) 17:32:03 437.200
XW-2D 21 Aug 17:32:35 17:34:02 12° 65° (ENE) 17:35:30 145.860 - 145.880
ISS 21 Aug 17:36:27 17:39:36 46° 221° (SW) 17:42:44 437.550
CUBESAT XI-V 21 Aug 17:42:29 17:47:11 61° 101° (E) 17:51:49 437.345
XW-2B 21 Aug 17:42:49 17:45:02 15° 66° (ENE) 17:47:15 145.730 - 145.750
BEESAT 21 Aug 17:43:41 17:47:39 26° 293° (WNW) 17:51:35 436.000
AO-7 21 Aug 17:43:58 17:50:01 22° 268° (W) 17:56:05 .
nSIGHT-1 21 Aug 17:44:01 17:47:02 36° 223° (SW) 17:50:01 .
RS-15 21 Aug 17:54:44 18:04:28 26° 18° (NNE) 18:13:53 29.354- 29.394
XW-2C 21 Aug 18:00:56 18:04:01 25° 70° (ENE) 18:07:07 145.795 - 145.815
STARS 21 Aug 18:04:33 18:07:31 18° 93° (E) 18:10:28 437.465
XW-2F 21 Aug 18:12:10 18:15:29 31° 71° (ENE) 18:18:51 145.980 - 146.000
ITUPSAT 1 21 Aug 18:19:57 18:22:10 13° 299° (WNW) 18:24:23 437.325
CUTE-I 21 Aug 18:30:25 18:35:37 55° 71° (ENE) 18:40:51 437.470
HO-68 21 Aug 18:31:35 18:37:26 28° 60° (ENE) 18:43:17 435.675
KAITUO 1B 21 Aug 18:35:44 18:39:18 48° 74° (ENE) 18:42:56 145.475/437.950
O/OREOS (USA 219) 21 Aug 18:40:05 18:42:25 14° 52° (NE) 18:44:45 437.305
DOVE 4 21 Aug 18:49:43 18:54:28 33° 264° (W) 18:59:09 437.250
CUTE 1.7 + AOD 2 21 Aug 18:51:24 18:54:23 19° 66° (ENE) 18:57:24 437.475
LilacSat-2 21 Aug 19:00:53 19:04:34 52° 260° (W) 19:08:18 437.200
KKS-1 21 Aug 19:03:37 19:07:48 42° 289° (WNW) 19:11:57 437.445
XW-2D 21 Aug 19:04:08 19:07:46 49° 261° (W) 19:11:27 145.860 - 145.880
NUDT-PHONESAT 21 Aug 19:07:14 19:10:51 65° 259° (W) 19:14:32 437.300
CUBEBUG 2 21 Aug 19:11:02 19:13:41 16° 66° (ENE) 19:16:20 437.445
YUBILEINY 21 Aug 19:11:54 19:16:48 16° 301° (WNW) 19:21:44 435.215
XW-2B 21 Aug 19:15:24 19:18:53 37° 262° (W) 19:22:25 145.730 - 145.750
CUBESAT XI-V 21 Aug 19:21:21 19:24:01 15° 297° (WNW) 19:26:40 437.345
XW-2C 21 Aug 19:35:13 19:38:09 21° 266° (W) 19:41:06 145.795 - 145.815
SEEDS 21 Aug 19:36:38 19:40:29 36° 71° (ENE) 19:44:22 437.485
STARS 21 Aug 19:39:56 19:44:01 41° 289° (WNW) 19:48:06 437.465
ZACube-1 21 Aug 19:41:47 19:42:47 11° 62° (ENE) 19:43:45 437.345
XW-2F 21 Aug 19:47:14 19:49:41 17° 267° (W) 19:52:10 145.980 - 146.000
XW-2A 21 Aug 19:56:26 19:59:38 46° 74° (ENE) 20:02:51 145.665 - 145.685
AO-73 21 Aug 20:00:48 20:03:18 16° 65° (ENE) 20:05:48 145.935
RS-15 21 Aug 20:08:23 20:20:21 59° 48° (NE) 20:31:38 29.354- 29.394
STRAND 1 21 Aug 20:12:13 20:16:40 30° 96° (E) 20:21:05 437.568
CUTE-I 21 Aug 20:12:16 20:15:58 19° 268° (W) 20:19:43 437.470
KAITUO 1B 21 Aug 20:12:44 20:13:36 11° 270° (W) 20:14:27 145.475/437.950
HO-68 21 Aug 20:17:40 20:24:41 59° 258° (WSW) 20:31:46 435.675
O/OREOS (USA 219) 21 Aug 20:17:48 20:22:20 70° 250° (WSW) 20:26:52 437.305
AAUSAT CUBESAT 2 21 Aug 20:19:22 20:23:23 49° 73° (ENE) 20:27:26 437.432
CUTE 1.7 + AOD 2 21 Aug 20:26:01 20:29:56 37° 263° (W) 20:33:54 437.475
UWE-3 21 Aug 20:36:33 20:40:45 83° 75° (ENE) 20:44:54 435.000/436.395/437.385
Oscar 11 21 Aug 20:43:14 20:47:07 34° 71° (ENE) 20:51:03 .
CUBEBUG 2 21 Aug 20:45:55 20:49:59 43° 261° (W) 20:53:59 437.445
SEEDS 21 Aug 21:13:18 21:16:16 19° 267° (W) 21:19:16 437.485
ZACube-1 21 Aug 21:14:21 21:18:29 68° 259° (W) 21:22:37 437.345
DELFI C3 21 Aug 21:18:11 21:21:04 19° 67° (ENE) 21:23:57 145.870
AO-73 21 Aug 21:35:14 21:39:11 43° 262° (W) 21:43:08 145.935
EO-88 21 Aug 21:45:56 21:48:44 21° 69° (ENE) 21:51:34 145.990 - 145.960
FO-29 21 Aug 21:48:34 21:52:30 20° 91° (E) 21:56:15 435.910
STRAND 1 21 Aug 21:51:18 21:55:48 33° 292° (WNW) 22:00:19 437.568
AAUSAT CUBESAT 2 21 Aug 21:57:01 21:59:07 13° 269° (W) 22:01:12 437.432
UNISAT 6 21 Aug 22:12:08 22:14:04 13° 91° (E) 22:16:00 437.425
Oscar 11 21 Aug 22:20:08 22:23:20 20° 267° (W) 22:26:34 .
RS-15 21 Aug 22:21:31 22:32:27 44° 252° (WSW) 22:42:51 29.354- 29.394
SO-50 21 Aug 22:23:09 22:24:37 11° 108° (ESE) 22:26:06 436.795
Max Valier Satellite 21 Aug 22:26:35 22:30:14 86° 257° (WSW) 22:33:54 145.860
TIGRISAT 21 Aug 22:45:29 22:49:10 27° 96° (E) 22:52:54 435.000
PCSat 21 Aug 22:45:44 22:50:44 40° 112° (ESE) 22:55:47 145.827
DELFI C3 21 Aug 22:51:59 22:55:36 32° 263° (W) 22:59:14 145.870
LO-87 21 Aug 23:12:17 23:15:27 30° 72° (ENE) 23:18:38 145.935 - 145.965
EO-88 21 Aug 23:19:21 23:22:17 23° 265° (W) 23:25:16 145.990 - 145.960
ESTCUBE 1 21 Aug 23:28:19 23:32:25 35° 70° (ENE) 23:36:33 437.505/2401.250
FO-29 21 Aug 23:32:41 23:38:01 48° 290° (WNW) 23:43:00 435.910
PRISM 21 Aug 23:34:05 23:38:13 69° 101° (E) 23:42:17 437.425
UNISAT 6 21 Aug 23:46:52 23:51:07 56° 285° (WNW) 23:55:24 437.425
SO-50 21 Aug 23:59:56 00:04:26 76° 304° (NW) 00:08:58 436.795
POLYITAN 1 22 Aug 00:12:27 00:14:22 13° 91° (E) 00:16:17 437.675
TIGRISAT 22 Aug 00:22:11 00:25:47 26° 291° (WNW) 00:29:26 435.000
M-CUBED/EXP-1 PRIME 22 Aug 00:23:54 00:27:19 23° 98° (E) 00:30:33 437.505
QB50P2 22 Aug 00:26:35 00:29:47 21° 94° (E) 00:32:57 145.880/145.840
EO-79 22 Aug 00:27:03 00:30:04 19° 94° (E) 00:33:04 145.935-145.965
PCSat 22 Aug 00:29:25 00:34:13 31° 310° (NW) 00:39:03 145.827
NO-84 22 Aug 00:43:14 00:44:31 12° 127° (SE) 00:45:47 435.350 FM
LO-87 22 Aug 00:46:43 00:48:56 16° 267° (W) 00:51:10 145.935 - 145.965
DUCHIFAT 1 22 Aug 00:55:15 00:58:58 30° 97° (E) 01:02:40 145.980
AIST 2D 22 Aug 01:05:39 01:09:06 48° 286° (WNW) 01:12:32 435.315
ESTCUBE 1 22 Aug 01:05:48 01:09:17 22° 266° (W) 01:12:48 437.505/2401.250
DX 1 22 Aug 01:05:53 01:09:23 24° 67° (ENE) 01:12:54 434.975-435.025
SPROUT 22 Aug 01:06:29 01:10:44 80° 256° (WSW) 01:15:01 437.525
VELOX 1 22 Aug 01:06:33 01:11:00 83° 75° (ENE) 01:15:29 145.980
PRISM 22 Aug 01:11:52 01:12:53 11° 299° (WNW) 01:13:54 437.425
50 SAT 22 Aug 01:22:49 01:26:03 42° 73° (ENE) 01:29:18 437.505
Oscar 19 22 Aug 01:31:33 01:32:10 10° 88° (E) 01:32:48 437.125/150
NANOSAT C BR1 22 Aug 01:40:33 01:44:43 69° 285° (WNW) 01:48:53 145.865
SO-50 22 Aug 01:43:42 01:45:40 13° 323° (NW) 01:47:39 436.795
